Theta_e
343 344 346 348 348 348 347 347 346 345 345 340 339 339 336 337 333 330 328 323 319 314 317 319 322 319 311
340 335 338 341 343 344 343 341 338 339 339 336 334 337 337 335 332 330 326 322 318 313 313 314 315 312 306
340 337 331 335 337 337 336 334 334 334 336 331 328 333 337 335 333 331 325 321 316 309 311 309 304 299 299
337 338 338 340 336 335 336 337 337 336 332 330 325 328 332 331 333 331 325 318 305 293 292 299 292 294 296
335 336 337 338 337 336 337 337 335 332 328 327 326 326 326 323 322 320 312 307 299 293 292 292 291 292 293
332 334 335 335 335 334 333 332 331 328 326 324 324 323 323 321 319 316 311 305 300 296 294 292 291 291 292
321 330 330 331 333 334 333 331 329 327 325 324 323 322 321 318 317 314 309 305 301 295 293 292 291 290 290
316 324 326 330 331 331 330 329 328 326 321 321 320 316 319 318 315 312 309 304 300 294 293 292 291 290 291
317 321 322 326 327 326 326 325 325 325 322 322 320 318 318 316 313 310 306 303 299 294 292 291 290 290 290
316 318 319 321 321 322 323 324 324 324 324 321 319 317 316 313 311 309 305 302 300 297 293 290 289 289 290
307 310 312 309 306 305 307 310 315 316 318 318 315 314 314 311 309 307 302 301 300 298 295 293 289 288 289
303 304 302 299 297 297 296 298 300 303 308 311 311 309 310 309 306 304 302 298 296 295 294 292 289 289 288
295 296 296 292 294 293 293 293 294 295 298 300 303 302 304 303 302 301 298 297 296 293 293 294 292 290 288
291 291 291 291 291 291 291 289 290 291 292 292 294 296 297 298 296 296 295 294 294 292 292 289 288 289 287
290 291 290 289 288 287 286 285 285 287 288 289 290 290 291 292 292 293 294 293 293 292 291 291 289 287 285
287 287 285 284 282 283 283 284 284 285 285 285 286 286 287 288 288 289 292 291 290 289 292 291 289 288 286
Wind_Speed
10 11 11 10 10 9 9 9 8 8 10 7 4 3 1 2 3 2 3 5 5 6 6 7 7 7 5
4 7 8 9 9 9 7 6 7 7 9 9 7 4 4 1 2 0 0 3 5 6 7 6 7 7 5
9 5 7 8 9 9 7 8 7 2 5 7 5 5 3 3 4 4 3 3 7 8 9 8 7 3 3
4 4 4 5 3 4 5 6 3 4 5 6 5 4 2 2 4 5 4 8 6 3 3 6 3 4 3
6 4 3 2 2 2 3 3 2 2 3 3 3 2 2 4 3 4 5 3 3 3 3 3 3 3 2
6 6 3 3 3 3 2 3 3 2 4 3 3 3 3 3 4 4 2 3 3 2 2 3 3 3 2
5 3 2 2 2 3 3 4 3 3 3 4 4 3 3 3 3 4 4 2 1 0 1 1 2 3 3
3 5 4 2 0 0 1 1 3 4 4 4 3 4 3 3 2 2 3 3 2 1 2 1 2 2 3
5 4 3 3 3 3 3 3 3 2 2 3 4 4 4 4 4 4 2 1 1 1 3 3 3 4 4
9 7 6 7 7 7 7 6 7 5 3 1 1 2 2 1 2 2 3 1 1 1 2 3 3 3 5
12 11 12 13 11 10 10 10 13 12 9 5 4 4 4 3 3 3 3 3 2 1 3 3 4 4 5
7 10 10 11 10 10 11 11 14 12 14 10 8 7 5 4 3 3 3 2 1 2 3 3 4 4 4
6 4 7 6 7 10 10 14 14 13 14 12 8 9 8 7 5 4 2 2 1 1 2 2 3 4 5
4 4 4 4 7 8 8 12 13 14 13 12 11 9 10 7 8 6 5 3 2 3 3 2 4 5 3
7 5 5 5 4 6 9 9 12 13 13 12 12 10 9 8 8 8 8 7 4 3 3 1 4 3 4
8 11 15 10 9 3 4 5 8 12 12 12 12 11 10 7 9 7 7 4 4 4 3 2 1 1 3
Wind_Direction
193 190 190 196 198 200 207 206 192 179 173 158 166 122 228 354 49 333 9 31 22 27 33 50 68 72 72
225 204 195 196 195 202 203 210 206 193 170 166 163 173 198 189 108 39 76 43 26 20 23 41 62 59 52
231 207 215 209 204 209 197 215 212 141 179 170 167 183 190 141 127 115 114 66 60 24 22 27 38 30 30
223 225 218 219 227 223 202 213 198 191 165 163 178 170 164 115 119 138 114 89 58 33 5 11 18 16 14
219 186 189 193 177 260 252 191 169 124 123 126 136 143 124 120 93 84 82 75 74 57 20 4 2 12 357
236 217 165 169 170 181 189 129 137 148 148 152 153 161 159 156 149 136 134 127 95 47 22 0 354 353 343
235 207 160 168 202 187 186 159 145 167 173 162 173 168 174 168 177 174 156 158 159 150 58 15 334 333 328
248 164 173 163 208 331 5 258 196 185 181 179 160 168 179 188 157 167 172 175 191 319 307 307 285 294 305
95 97 85 81 67 33 358 329 304 286 190 172 169 182 194 179 157 131 101 126 169 64 308 325 326 312 299
51 65 67 56 54 41 30 30 26 32 33 67 10 352 13 136 148 139 136 199 265 306 317 316 311 314 309
53 62 62 60 52 39 37 29 23 28 22 40 49 45 36 55 56 61 48 15 351 336 283 292 292 287 281
61 67 60 59 53 48 36 32 33 25 25 32 34 32 32 54 58 64 72 63 1 326 300 288 263 263 264
45 45 57 48 50 52 49 39 36 32 32 29 35 34 23 41 31 34 63 49 42 354 344 328 285 253 261
60 77 70 83 57 54 44 46 42 39 32 38 33 30 32 35 28 20 24 20 36 19 24 237 343 329 351
48 86 92 77 53 43 33 41 36 43 41 40 35 37 33 38 30 20 16 17 4 15 65 21 333 320 318
56 74 78 86 89 55 60 50 47 43 44 41 43 41 39 29 33 23 23 15 14 12 343 52 180 165 316